Weather History for Pittsburgh, PA

Change the Weather History Date:

Thursday, March 1, 2012

  Actual Average Record
Temperature  
Mean Temperature 45 °F 34 °F  
Max Temperature 58 °F 43 °F 72 °F (1972)
Min Temperature 31 °F 26 °F 3 °F (1980)
Degree Days  
Heating Degree Days 20 31  
Month to date heating degree days 20 31  
Since 1 July heating degree days 3698 4288  
Moisture  
Dew Point 30 °F    
Average Humidity 64    
Maximum Humidity 82    
Minimum Humidity 46    
Precipitation  
Precipitation 0.00 in 0.08 in 1.40 in (1954)
Month to date precipitation 0.00 0.08  
Year to date precipitation 6.09 5.17  
Snow  
Snow 0.00 in 0.30 in 5.90 in (1952)
Month to date snowfall 0.0 0.3  
Since 1 July snowfall 30.9 32.8  
Snow Depth 0.00 in    
Sea Level Pressure  
Sea Level Pressure 29.80 in    
Wind  
Wind Speed 9 mph (West)    
Max Wind Speed 28 mph    
Max Gust Speed 37 mph    
Visibility 10 miles    
Events      
T = Trace of Precipitation, MM = Missing Value Source: NWS Daily Summary

Daily Weather History Graph

Daily Weather History Graph

Search for Another Location

Airport:

Trip Planner

Search our weather history database for the weather conditions in past years. The results will help you decide how hot, cold, wet, or windy it might be!

Date:

Astronomy

Mar. 01, 2012 Rise Set
Actual Time 6:53 AM EST 6:12 PM EST
Civil Twilight 6:26 AM EST 6:40 PM EST
Nautical Twilight 5:54 AM EST 7:11 PM EST
Astronomical Twilight 5:23 AM EST 7:43 PM EST
Moon 11:30 AM EST (3/1) 1:52 AM EST (3/1)
Length of Visible Light 12h 13m
Length of Day
11h 19m
First Quarter, 56% of the Moon is Illuminated
Mar 1
First Quarter
Mar 8
Full
Mar 14
Last Quarter
Mar 22
New
Mar 30
First Quarter

Hourly Weather History & Observations

Time (EST) Temp. Windchill Dew Point Humidity Pressure Visibility Wind Dir Wind Speed Gust Speed Precip Events Conditions
12:51 AM 57.0 °F - 46.9 °F 69% 29.57 in 10.0 mi WSW 13.8 mph 23.0 mph N/A   Mostly Cloudy
1:51 AM 57.0 °F - 42.1 °F 57% 29.57 in 10.0 mi WSW 10.4 mph 21.9 mph N/A   Mostly Cloudy
2:51 AM 51.1 °F - 34.0 °F 52% 29.60 in 10.0 mi WNW 23.0 mph 36.8 mph N/A   Overcast
3:51 AM 50.0 °F - 30.0 °F 46% 29.62 in 10.0 mi WSW 10.4 mph 20.7 mph N/A   Overcast
4:51 AM 48.0 °F - 30.0 °F 50% 29.65 in 10.0 mi West 15.0 mph 26.5 mph N/A   Overcast
5:51 AM 46.0 °F 39.6 °F 28.0 °F 50% 29.67 in 10.0 mi West 15.0 mph 24.2 mph N/A   Overcast
6:51 AM 45.0 °F 39.3 °F 28.9 °F 53% 29.69 in 10.0 mi West 11.5 mph - N/A   Overcast
7:51 AM 44.6 °F 38.8 °F 30.2 °F 57% 29.70 in 10.0 mi West 11.5 mph 17.3 mph N/A   Overcast
8:51 AM 42.1 °F 36.1 °F 30.0 °F 62% 29.75 in 10.0 mi West 10.4 mph - N/A   Overcast
9:51 AM 42.1 °F 37.7 °F 28.9 °F 60% 29.77 in 10.0 mi WSW 6.9 mph - N/A   Overcast
10:51 AM 41.0 °F 35.2 °F 28.0 °F 60% 29.79 in 10.0 mi West 9.2 mph 21.9 mph N/A   Overcast
11:51 AM 39.9 °F 33.4 °F 28.0 °F 63% 29.82 in 10.0 mi West 10.4 mph 19.6 mph N/A   Overcast
12:38 PM 39.2 °F 29.8 °F 28.4 °F 65% 29.80 in 10.0 mi West 18.4 mph 24.2 mph N/A   Overcast
12:51 PM 39.0 °F 30.3 °F 28.0 °F 65% 29.83 in 10.0 mi West 16.1 mph 21.9 mph N/A   Overcast
1:51 PM 39.0 °F 31.4 °F 28.9 °F 67% 29.84 in 10.0 mi West 12.7 mph - N/A   Overcast
2:51 PM 39.2 °F 32.0 °F 28.4 °F 65% 29.83 in 10.0 mi West 11.5 mph 23.0 mph N/A   Overcast
3:51 PM 39.0 °F 31.4 °F 28.9 °F 67% 29.89 in 10.0 mi West 12.7 mph - N/A   Overcast
4:35 PM 39.2 °F 33.6 °F 28.4 °F 65% 29.86 in 10.0 mi West 8.1 mph - N/A   Overcast
4:51 PM 39.0 °F 35.7 °F 28.0 °F 65% 29.91 in 10.0 mi West 4.6 mph - N/A   Overcast
5:51 PM 39.9 °F 36.7 °F 27.0 °F 60% 29.93 in 10.0 mi WSW 4.6 mph - N/A   Overcast
6:51 PM 39.9 °F - 27.0 °F 60% 29.95 in 10.0 mi Calm Calm - N/A   Overcast
7:51 PM 39.0 °F - 28.0 °F 65% 29.96 in 10.0 mi Calm Calm - N/A   Overcast
8:51 PM 37.9 °F - 28.0 °F 68% 29.96 in 10.0 mi Calm Calm - N/A   Overcast
9:51 PM 35.6 °F - 28.4 °F 75% 29.93 in 10.0 mi Calm Calm - N/A   Partly Cloudy
10:51 PM 34.0 °F - 28.0 °F 79% 29.96 in 10.0 mi Calm Calm - N/A   Clear
11:51 PM 32.0 °F - 27.0 °F 82% 29.96 in 10.0 mi Calm Calm - N/A   Clear